Find Starlink 32916

NORAD ID: 62922 Int'l Des: 2025-027 Owner: SPXS Country: US Constellation: starlink operational
LEOCIRCULAR

Live Position

Loading 3D Globe...

About Starlink 32916

Description loading...

Upcoming Passes

Passes for default location (London). Set your location on the main map for personalized predictions.

Altitude History

Loading altitude history...

Two-Line Element Set

1 62922U 25027R 26106.15866528 .00007183 00000-0 27025-3 0 9991
2 62922 42.9977 277.1763 0001260 12.5258 347.5625 15.27584703 67272
Epoch: Apr 16, 2026 • Age: 14 hours

Current Status

Altitude 485.8 km
Velocity 7.63 km/s
Sub-Earth Point 42.97°N, 122.28°W
Launch Date Feb 8, 2025
Age 1.1 years
Type internet

Technical Details

Classification Payload
Mass 730.00 kg
Dry Mass 700.00 kg
Total Mass 730.00 kg
Length 0.30 m
Diameter 4.10 m
Span 29.00 m
Shape Box + pan
Manufacturer SPXS
Bus Type Starlink V2M
Phase Status In Orbit
Owner/State SPXS/US

Most Searched